Location: Pinawa
(50.1500°N, 95.8830°W)
Time: 13:40:44
(UTC-05:00)

ISS - All Passes

Search period start: 29 September 2016 00:00
Search period end: 09 October 2016 00:00
Orbit: 400 x 410 km, 51.6° (Epoch: 29 September)

Date Brightness Start Highest point End Pass type
(mag) Time Alt. Az. Time Alt. Az. Time Alt. Az.
29 Sep - 00:29:20 10° WNW 00:32:36 67° N 00:35:53 10° E night (unlit)
29 Sep - 02:05:52 10° WNW 02:09:05 54° SSW 02:12:19 10° SE night (unlit)
29 Sep - 03:43:32 10° WSW 03:45:01 13° SW 03:46:30 10° SSW night (unlit)
29 Sep - 20:25:28 10° S 20:27:47 18° SE 20:30:06 10° E visible
29 Sep - 22:00:37 10° WSW 22:03:52 72° SSE 22:07:08 10° ENE visible
29 Sep - 23:37:10 10° W 23:40:26 64° N 23:43:42 10° E night (unlit)
30 Sep - 01:13:44 10° WNW 01:17:01 77° SSW 01:20:18 10° ESE night (unlit)
30 Sep - 02:50:40 10° W 02:53:09 20° SW 02:55:37 10° S night (unlit)
30 Sep - 19:34:50 10° SSE 19:35:55 11° SE 19:36:59 10° ESE visible
30 Sep - 21:08:37 10° SW 21:11:48 50° SSE 21:14:58 10° ENE visible
30 Sep - 22:45:00 10° W 22:48:15 68° N 22:51:32 10° ENE visible
01 Oct - 00:21:36 10° WNW 00:24:53 83° N 00:28:11 10° ESE night (unlit)
01 Oct - 01:58:14 10° W 02:01:11 30° SSW 02:04:07 10° SSE night (unlit)
01 Oct - 20:16:47 10° SW 20:19:45 33° SSE 20:22:44 10° E visible
01 Oct - 21:52:48 10° W 21:56:04 80° NNW 21:59:21 10° ENE visible
01 Oct - 23:29:26 10° WNW 23:32:43 70° N 23:35:59 10° E night (unlit)
02 Oct - 01:05:59 10° WNW 01:09:09 46° SSW 01:12:19 10° SE night (unlit)
02 Oct - 02:44:27 10° SW 02:44:59 10° SW 02:45:33 10° SW night (unlit)
02 Oct - 19:25:13 10° SSW 19:27:46 21° SE 19:30:20 10° E visible
02 Oct - 21:00:39 10° WSW 21:03:55 81° SSE 21:07:11 10° ENE visible
02 Oct - 22:37:15 10° W 22:40:30 65° N 22:43:46 10° E visible
03 Oct - 00:13:47 10° WNW 00:17:03 68° SSW 00:20:19 10° ESE night (unlit)
03 Oct - 01:50:54 10° W 01:53:06 17° SW 01:55:18 10° S night (unlit)
03 Oct - 18:34:08 10° S 18:35:50 14° SE 18:37:32 10° ESE daylight
03 Oct - 20:08:34 10° SW 20:11:47 57° SSE 20:15:00 10° ENE visible
03 Oct - 21:45:01 10° W 21:48:17 66° N 21:51:33 10° E visible
03 Oct - 23:21:37 10° WNW 23:24:54 89° NNW 23:28:11 10° ESE night (unlit)
04 Oct - 00:58:20 10° W 01:01:08 26° SW 01:03:56 10° SSE night (unlit)
04 Oct - 19:16:39 10° SW 19:19:41 38° SSE 19:22:45 10° E daylight
04 Oct - 20:52:48 10° W 20:56:03 74° NNW 20:59:20 10° ENE visible
04 Oct - 22:29:26 10° WNW 22:32:42 74° N 22:35:58 10° E visible
05 Oct - 00:06:00 10° W 00:09:06 40° SSW 00:12:11 10° SE night (unlit)
05 Oct - 18:24:55 10° SSW 18:27:38 25° SE 18:30:23 10° E daylight
05 Oct - 20:00:35 10° WSW 20:03:51 89° SSE 20:07:08 10° ENE visible
05 Oct - 21:37:12 10° W 21:40:28 66° N 21:43:43 10° E visible
05 Oct - 23:13:45 10° WNW 23:16:59 59° SSW 23:20:12 10° ESE night (unlit)
06 Oct - 00:51:07 10° WSW 00:52:57 14° SW 00:54:47 10° S night (unlit)
06 Oct - 17:33:34 10° S 17:35:39 16° SE 17:37:44 10° E daylight
06 Oct - 19:08:26 10° WSW 19:11:40 66° SSE 19:14:55 10° ENE daylight
06 Oct - 20:44:58 10° W 20:48:12 65° N 20:51:28 10° E visible
06 Oct - 22:21:31 10° WNW 22:24:48 83° SSW 22:28:05 10° ESE visible
06 Oct - 23:58:21 10° W 00:00:58 22° SW 00:03:35 10° SSE night (unlit)
07 Oct - 18:16:24 10° SW 18:19:31 44° SSE 18:22:39 10° E daylight
07 Oct - 19:52:41 10° W 19:55:57 70° N 19:59:12 10° ENE visible
07 Oct - 21:29:18 10° WNW 21:32:34 78° N 21:35:51 10° E visible
07 Oct - 23:05:54 10° W 23:08:55 34° SSW 23:11:54 10° SE night (unlit)
08 Oct - 17:24:32 10° SSW 17:27:25 29° SSE 17:30:18 10° E daylight
08 Oct - 19:00:25 10° WSW 19:03:42 84° N 19:06:58 10° ENE daylight
08 Oct - 20:37:03 10° WNW 20:40:18 68° N 20:43:34 10° E visible
08 Oct - 22:13:35 10° WNW 22:16:46 51° SSW 22:19:58 10° SE visible
08 Oct - 23:51:23 10° WSW 23:52:40 12° SW 23:53:57 10° SSW night (unlit)
